Location: Ostrava
(49.8330°N, 18.2830°E)
Time: 14:58:18
(UTC+02:00)

Cosmos 1400 Rocket - Visible Passes

Search period start: 17 April 2014 00:00
Search period end: 27 April 2014 00:00
Orbit: 531 x 583 km, 81.2° (Epoch: 16 April)

Date Brightness Start Highest point End Pass type
(mag) Time Alt. Az. Time Alt. Az. Time Alt. Az.
17 Apr 3.0 21:25:26 23° SSE 21:27:42 50° E 21:31:35 10° NNE visible
17 Apr 5.5 23:01:58 10° WSW 23:04:43 18° WNW 23:07:28 10° NNW visible
18 Apr 2.8 21:22:15 15° S 21:25:30 59° E 21:29:25 10° NNE visible
18 Apr 5.7 23:00:10 10° W 23:02:36 15° WNW 23:05:02 10° NNW visible
19 Apr 2.7 21:19:17 10° S 21:23:17 69° E 21:27:15 10° NNE visible
19 Apr 5.8 22:58:26 10° W 23:00:30 14° WNW 23:02:33 10° NNW visible
20 Apr 2.7 21:17:04 10° S 21:21:05 81° E 21:25:04 10° NNE visible
20 Apr 5.9 22:56:49 10° W 22:58:23 12° WNW 22:59:56 10° NW visible
21 Apr 2.8 21:14:52 10° SSW 21:18:53 87° WNW 21:22:52 10° NNE visible
21 Apr 6.1 22:55:33 10° WNW 22:56:16 10° WNW 22:57:00 10° NW visible
22 Apr 3.0 21:12:41 10° SSW 21:16:40 75° WNW 21:20:39 10° N visible
23 Apr 3.3 21:10:31 10° SSW 21:14:28 64° WNW 21:18:25 10° N visible
24 Apr 3.6 21:08:22 10° SSW 21:12:16 54° WNW 21:16:10 10° N visible
25 Apr 3.9 21:06:14 10° SSW 21:10:04 46° WNW 21:13:54 10° N visible
26 Apr 4.3 21:04:07 10° SW 21:07:52 40° WNW 21:11:37 10° N visible
